Location: Sunne
(59.8356°N, 13.1489°E)
Time: 10:21:38
(UTC+01:00)

ISS - Visible Passes

Search period start: 21 January 2021 00:00
Search period end: 31 January 2021 00:00
Orbit: 418 x 419 km, 51.6° (Epoch: 21 January)

Date Brightness Start Highest point End Pass type
(mag) Time Alt. Az. Time Alt. Az. Time Alt. Az.
22 Jan -1.1 18:46:04 10° S 18:46:41 12° S 18:46:41 12° S visible
23 Jan -1.2 17:59:38 10° SSE 18:00:11 10° SSE 18:00:43 10° SE visible
23 Jan -0.8 19:33:34 10° SW 19:33:55 12° SW 19:33:55 12° SW visible
24 Jan -1.6 18:46:09 10° SSW 18:48:08 17° S 18:48:08 17° S visible
25 Jan -1.5 17:58:52 10° SSW 18:00:55 15° SSE 18:02:20 12° SE visible
25 Jan -1.1 19:34:20 10° SW 19:35:17 15° SW 19:35:17 15° SW visible
26 Jan -1.2 17:11:48 10° S 17:13:22 13° SSE 17:14:57 10° SE visible
26 Jan -1.9 18:46:45 10° SW 18:49:19 20° S 18:49:27 20° S visible
27 Jan -1.7 17:59:14 10° SW 18:01:43 19° S 18:03:37 13° SE visible
27 Jan -1.2 19:35:18 10° WSW 19:36:33 16° SW 19:36:33 16° SW visible
28 Jan -1.5 17:11:48 10° SSW 17:14:06 17° SSE 17:16:25 10° ESE visible
28 Jan -1.8 18:47:34 10° SW 18:50:08 20° S 18:50:43 19° S visible
29 Jan -1.7 17:59:54 10° SW 18:02:29 21° S 18:04:54 11° SE visible
29 Jan -1.1 19:36:30 10° WSW 19:37:51 14° SSW 19:37:51 14° SSW visible
30 Jan -1.6 17:12:17 10° SW 17:14:51 20° S 17:17:25 10° SE visible
30 Jan -1.5 18:48:35 10° WSW 18:50:53 17° SSW 18:52:04 15° S visible
